[[{"header":{"parameterUnit":"m.s-1","parameterCategory":2,"la1":30.2991,"la2":30.254,"lo1":-89.0895,"lo2":-89.0444,"dy":0.0017,"dx":0.0017,"nx":28,"ny":28,"refTime":"2025-05-19T03:00:00:Z","depth":"0","parameterNumber":2,"parameterNumberName":"U-component_of_CURRENTS"},"data":[0,0,0,0,0,0,0,0,0,0,0,0,0,0,0,0,0,0,0,0,0,0,0,0,0,0,0,0,0,0,0,0,0,0,0,0,0,0,0,0,0,0,0,0,0,0,0,0,0,0,0,0,0,0,0,0,0,0,0.1718,0.172,0,0.1899,0.19,0.1902,0.1977,0.1977,0.1977,0.1977,0.2059,0.2061,0.2063,0,0,0,0,0,0,0,0,0,0,0,0,0,0.149,0.1494,0.1718,0.1721,0.1723,0.1898,0.1901,0.1903,0.1977,0.1977,0.1977,0.1977,0.2058,0.2061,0.2064,0,0,0,0,0,0,0,0,0,0,0,0,0,0.1619,0.1495,0.1718,0.1784,0.1792,0.1898,0.1901,0.1903,0.1977,0.1977,0.1977,0.1977,0.2057,0.2061,0.2064,0.2088,0,0,0.2074,0.2076,0,0,0,0,0,0,0,0,0.1612,0.1627,0.1771,0.1779,0.1788,0.1918,0.1851,0.1961,0.1978,0.1904,0.1977,0.1977,0.2005,0.2012,0.2044,0.2092,0.2095,0.2075,0.2077,0.2078,0.2079,0,0,0,0,0,0,0,0.1602,0.162,0.1787,0.1774,0.1785,0.1822,0.184,0.1872,0.1949,0.191,0.1917,0.1942,0.2008,0.2041,0.2046,0.2097,0.2075,0.2078,0.208,0.2081,0.2202,0.2203,0,0,0,0,0,0,0.1584,0.1611,0.1781,0.1792,0.1701,0.1827,0.1846,0.1874,0.1951,0.1964,0.1942,0.1944,0.2035,0.2042,0.2049,0.2104,0.2078,0.2081,0.2083,0.2201,0.2202,0.2203,0,0,0,0,0,0,0.1578,0.1598,0.1774,0.1708,0.1733,0.1831,0.1862,0.1878,0.1914,0.1976,0.1987,0.1962,0.2035,0.2044,0.2089,0.2106,0.2083,0.2086,0.2199,0.2201,0.2203,0.2199,0,0,0,0,0,0,0.1571,0.1594,0.1607,0.1707,0.1736,0.1848,0.1863,0.1882,0.1931,0.1936,0.1997,0.2005,0.2036,0.2084,0.2092,0.2111,0.2089,0.2198,0.22,0.2202,0.2197,0.22,0.2202,0,0,0,0,0,0.1562,0.1601,0.1607,0.1628,0.1751,0.1849,0.1868,0.1934,0.1931,0.1961,0.1995,0.2003,0.2104,0.2087,0.2097,0.2117,0.2197,0.2199,0.2202,0.2196,0.2199,0.2202,0,0,0,0,0,0,0.152,0.1615,0.1624,0.1689,0.1759,0.1863,0.1903,0.1931,0.1983,0.198,0.2018,0.203,0.2081,0.2097,0.2078,0.2159,0.2151,0.2156,0.2143,0.2147,0.2149,0.2145,0.2092,0,0,0,0,0,0.151,0.1558,0.1645,0.1697,0.1729,0.1804,0.1848,0.189,0.1952,0.1976,0.2014,0.2053,0.2101,0.212,0.2167,0.2202,0.2277,0.2222,0.2225,0.2226,0.2231,0.2385,0.2402,0.2212,0.2212,0.2212,0,0,0.1511,0.1567,0.1595,0.169,0.1746,0.1804,0.1831,0.1904,0.1944,0.1973,0.2028,0.2067,0.2115,0.2169,0.2191,0.2181,0.232,0.223,0.2231,0.2234,0.239,0.2409,0.2425,0.2214,0.2213,0.2213,0,0,0.1545,0.1579,0.1629,0.1681,0.1764,0.1811,0.1825,0.1916,0.1946,0.2004,0.2037,0.2085,0.2148,0.2195,0.2222,0.2264,0.2335,0.2272,0.2274,0.2424,0.2441,0.2457,0.2575,0.2602,0.2265,0.2265,0.2265,0,0.1535,0.1615,0.166,0.1716,0.1758,0.1806,0.186,0.1904,0.1993,0.2022,0.2019,0.2141,0.2166,0.2247,0.2254,0.227,0.2362,0.2255,0.2429,0.2447,0.2463,0.2581,0.2611,0.2265,0.2265,0.2265,0.2265,0,0.1611,0.1664,0.17,0.1774,0.1814,0.188,0.193,0.1966,0.1991,0.2041,0.2122,0.2174,0.2249,0.2258,0.2262,0.2381,0.2411,0.2423,0.2422,0.2483,0.2602,0.2633,0.2265,0.2265,0.2265,0.2265,0,0,0.1623,0.1732,0.1744,0.1782,0.185,0.1903,0.1939,0.2015,0.206,0.2117,0.2196,0.2252,0.2281,0.2314,0.2339,0.2436,0.2613,0.2467,0.2475,0.2584,0.2947,0.287,0.2897,0.2672,0.2678,0.2682,0.2982,0,0.1672,0.1777,0.1814,0.1897,0.195,0.1977,0.2013,0.2066,0.2117,0.22,0.2251,0.2338,0.2304,0.235,0.2441,0.2582,0.2696,0.253,0.2871,0.288,0.2806,0.293,0.2821,0.3071,0.3013,0.3018,0.3022,0,0.1738,0.1798,0.1886,0.1963,0.1986,0.2024,0.209,0.2137,0.2226,0.2269,0.2347,0.2404,0.2526,0.2502,0.2775,0.268,0.2809,0.2908,0.2924,0.2875,0.2862,0.3002,0.3131,0.3006,0.307,0.3066,0.3063,0,0.174,0.185,0.192,0.1949,0.2034,0.2058,0.2092,0.2156,0.2206,0.2328,0.2394,0.2536,0.2642,0.2816,0.2961,0.2913,0.3278,0.3252,0.3309,0.3305,0.3287,0.327,0.3332,0.348,0.348,0.3479,0.3478,0,0.179,0.185,0.1929,0.197,0.2026,0.2069,0.213,0.2182,0.2275,0.2365,0.2435,0.2553,0.2736,0.2928,0.3047,0.3269,0.3366,0.3345,0.3395,0.3277,0.3258,0.3204,0.3116,0.349,0.3488,0.3485,0.3484,0,0.18,0.186,0.1938,0.2018,0.2033,0.2068,0.2128,0.2197,0.2272,0.24,0.2448,0.2639,0.2884,0.3042,0.3358,0.3395,0.3503,0.3654,0.3471,0.3491,0.3364,0.328,0.3323,0.3226,0.3785,0.3785,0.3785,0,0.1828,0.1873,0.1948,0.1983,0.2022,0.2066,0.2108,0.2179,0.2262,0.2455,0.2548,0.2788,0.2942,0.332,0.3472,0.3693,0.3556,0.3692,0.3557,0.3365,0.3313,0.3158,0.3061,0.3554,0.3552,0.3551,0.3549,0,0.1869,0.1889,0.1945,0.2002,0.2051,0.2094,0.2166,0.2215,0.2337,0.244,0.2635,0.2765,0.3094,0.3269,0.3508,0.3618,0.3463,0.3665,0.3559,0.3207,0.296,0.2887,0.3319,0.3536,0.3538,0.3539,0.3539,0.354,0.189,0.192,0.1983,0.2037,0.208,0.2128,0.2137,0.2238,0.2329,0.2471,0.2647,0.2801,0.3041,0.3355,0.3436,0.3441,0.3412,0.3374,0.3321,0.3205,0.2989,0.3349,0.3541,0.3542,0.3543,0.3544,0.3545,0,0.1926,0.1964,0.2022,0.2066,0.2095,0.2119,0.219,0.2195,0.2267,0.2438,0.2563,0.2764,0.2933,0.309,0.3198,0.3116,0.2995,0.3027,0.2799,0.2746,0.3189,0.3048,0.3026,0.3026,0.3026,0.3026,0.3027,0.3027,0.1948,0.2009,0.2036,0.2073,0.2091,0.2088,0.2103,0.2118,0.22,0.2288,0.2377,0.2504,0.2685,0.2831,0.2799,0.2768,0.255,0.247,0.2432,0.2734,0.2761,0.2786,0.2634,0.2526,0.2525,0.191,0.1905,0.1901]},{"header":{"parameterUnit":"m.s-1","parameterCategory":2,"la1":30.2991,"la2":30.254,"lo1":-89.0895,"lo2":-89.0444,"dy":0.0017,"dx":0.0017,"nx":28,"ny":28,"refTime":"2025-05-19T03:00:00:Z","depth":"0","parameterNumber":3,"parameterNumberName":"V-component_of_CURRENTS"},"data":[0,0,0,0,0,0,0,0,0,0,0,0,0,0,0,0,0,0,0,0,0,0,0,0,0,0,0,0,0,0,0,0,0,0,0,0,0,0,0,0,0,0,0,0,0,0,0,0,0,0,0,0,0,0,0,0,0,0,0.0008,0.0008,0,-0.0044,-0.0044,-0.0045,-0.0069,-0.0069,-0.0069,-0.0068,-0.0114,-0.0115,-0.0116,0,0,0,0,0,0,0,0,0,0,0,0,0,0.0046,0.0046,0.0009,0.0008,0.0007,-0.0043,-0.0044,-0.0045,-0.0069,-0.0069,-0.0069,-0.0068,-0.0113,-0.0115,-0.0116,0,0,0,0,0,0,0,0,0,0,0,0,0,0.0016,0.0046,0.0009,-0.0011,-0.0013,-0.0043,-0.0044,-0.0045,-0.0069,-0.0069,-0.0069,-0.0068,-0.0113,-0.0114,-0.0116,-0.013,0,0,-0.0122,-0.0123,0,0,0,0,0,0,0,0,0.0017,0.0014,-0.0007,-0.0009,-0.0012,-0.0049,-0.0048,-0.0073,-0.0069,-0.0048,-0.0068,-0.0068,-0.0091,-0.0095,-0.0105,-0.0132,-0.0134,-0.0122,-0.0123,-0.0124,-0.0125,0,0,0,0,0,0,0,0.002,0.0016,-0.0012,-0.0008,-0.0011,-0.0031,-0.0035,-0.0053,-0.0069,-0.0049,-0.0051,-0.0057,-0.0093,-0.0103,-0.0107,-0.0134,-0.0122,-0.0124,-0.0125,-0.0126,-0.014,-0.014,0,0,0,0,0,0,0.0028,0.0018,-0.0011,-0.0014,0.0003,-0.0031,-0.0036,-0.0038,-0.0069,-0.0074,-0.0057,-0.0058,-0.01,-0.0104,-0.0108,-0.01,-0.0124,-0.0126,-0.0127,-0.0141,-0.014,-0.014,0,0,0,0,0,0,0.0029,0.0026,-0.0008,0.0001,-0.0005,-0.0032,-0.0034,-0.0039,-0.0048,-0.0075,-0.008,-0.0061,-0.01,-0.0106,-0.0128,-0.0103,-0.0127,-0.0128,-0.0142,-0.0141,-0.014,-0.0099,0,0,0,0,0,0,0.0031,0.0027,0.0028,0.0002,-0.0005,-0.0029,-0.0034,-0.004,-0.0052,-0.0053,-0.008,-0.0085,-0.0101,-0.0126,-0.013,-0.0106,-0.013,-0.0143,-0.0142,-0.014,-0.0102,-0.0097,-0.0093,0,0,0,0,0,0.0032,0.0031,0.0028,0.0025,-0.0003,-0.0029,-0.0035,-0.0054,-0.0052,-0.0061,-0.0078,-0.0084,-0.0119,-0.0128,-0.0133,-0.0108,-0.0144,-0.0142,-0.014,-0.0104,-0.0098,-0.0093,0,0,0,0,0,0,0.0052,0.0027,0.0024,0.0017,-0.0004,-0.0033,-0.0043,-0.0051,-0.0072,-0.0071,-0.0091,-0.0097,-0.0102,-0.0115,-0.0123,-0.0106,-0.0125,-0.0125,-0.0095,-0.009,-0.0086,-0.0025,-0.0132,0,0,0,0,0,0.0057,0.0046,0.0023,0.0017,0.0008,-0.0015,-0.0027,-0.0039,-0.0061,-0.0069,-0.0088,-0.0098,-0.0099,-0.0105,-0.0118,-0.012,-0.0082,-0.0101,-0.0097,-0.0093,-0.0046,0.0045,0.0064,-0.0134,-0.0134,-0.0134,0,0,0.0065,0.0048,0.0045,0.002,0.0003,-0.001,-0.0022,-0.0041,-0.004,-0.0071,-0.0079,-0.0091,-0.0098,-0.0097,-0.0098,-0.0105,-0.003,-0.0091,-0.0088,-0.0042,0.0049,0.0069,0.0087,-0.0133,-0.0133,-0.0133,0,0,0.0059,0.0061,0.0042,0.0028,0.0001,-0.0007,-0.001,-0.0038,-0.0039,-0.006,-0.0061,-0.0046,-0.0087,-0.0057,-0.0053,-0.0029,-0.0012,-0.0047,0.0028,0.0115,0.0133,0.015,0.0175,0.0194,-0.0041,-0.0041,-0.0041,0,0.0071,0.0056,0.0033,0.0012,0.0023,-0.0002,0.0001,-0.0014,-0.0044,-0.0008,-0.0061,-0.0026,-0.0052,0.0021,0.002,-0.0012,0.0017,0.0004,0.0125,0.0142,0.0159,0.0181,0.0202,-0.0038,-0.0039,-0.0039,-0.0039,0,0.0047,0.0044,0.0036,0.0015,0.0016,0.0016,0.0006,0.0012,0.0008,0.0019,0.0071,0.0043,0.0088,0.0068,0.004,0.0155,0.0127,0.0117,0.0118,0.0182,0.0199,0.022,-0.0035,-0.0036,-0.0037,-0.0037,0,0,0.0059,0.003,0.0028,0.0052,0.0034,0.0047,0.0057,0.0102,0.017,0.0128,0.0226,0.0206,0.0229,0.0239,0.0224,0.0285,0.0382,0.0249,0.0253,0.0286,0.0541,0.0444,0.0456,0.0395,0.04,0.0404,0.0488,0,0.0059,0.0055,0.0035,0.0068,0.009,0.0101,0.0135,0.0175,0.0209,0.0285,0.0303,0.0364,0.0282,0.0318,0.0366,0.0402,0.0447,0.0358,0.0466,0.0469,0.0387,0.0482,0.0413,0.0478,0.0509,0.0512,0.0514,0,0.0044,0.0062,0.0095,0.0161,0.0174,0.0192,0.0319,0.0336,0.0432,0.0465,0.0537,0.055,0.0638,0.0545,0.0654,0.0601,0.0582,0.0582,0.0586,0.0514,0.0414,0.0429,0.0515,0.0341,0.0546,0.0544,0.0541,0,0.0104,0.0112,0.0166,0.0181,0.0233,0.0284,0.0318,0.0413,0.049,0.0601,0.0687,0.0764,0.0833,0.0844,0.0801,0.0756,0.0902,0.0842,0.0731,0.072,0.0698,0.0677,0.0651,0.0929,0.0929,0.0928,0.0928,0,0.0138,0.0183,0.0205,0.0246,0.0347,0.0356,0.0484,0.0534,0.0652,0.0794,0.0794,0.0932,0.0921,0.0975,0.0899,0.0882,0.0981,0.0787,0.0768,0.0698,0.0678,0.0552,0.0459,0.0931,0.0931,0.093,0.093,0,0.0208,0.0202,0.0282,0.0354,0.0376,0.0456,0.056,0.0675,0.0755,0.0943,0.0989,0.1113,0.1188,0.1122,0.116,0.103,0.0903,0.095,0.0827,0.0791,0.0503,0.0415,0.0447,0.0387,0.0877,0.0875,0.0874,0,0.0251,0.0294,0.0373,0.0428,0.0464,0.0559,0.0644,0.0721,0.0857,0.1068,0.1195,0.1306,0.1411,0.1377,0.118,0.1035,0.0893,0.0844,0.0749,0.0517,0.0406,0.0366,0.0311,0.0715,0.0712,0.071,0.0709,0,0.037,0.0388,0.0455,0.0555,0.0642,0.0749,0.0875,0.0988,0.1121,0.1279,0.1515,0.1606,0.1544,0.1407,0.1148,0.1009,0.0702,0.0796,0.0635,0.0359,0.0246,0.0166,0.0575,0.0691,0.0693,0.0694,0.0695,0.0696,0.0469,0.0531,0.0601,0.0702,0.0802,0.0957,0.1061,0.1216,0.1415,0.1661,0.1731,0.1868,0.1575,0.1235,0.1011,0.0511,0.059,0.0364,0.0299,0.0298,0.018,0.0508,0.0542,0.0543,0.0544,0.0544,0.0545,0,0.0585,0.064,0.0746,0.0868,0.1005,0.1032,0.1239,0.136,0.1591,0.1787,0.1954,0.1845,0.1461,0.1047,0.0392,0.0072,-0.0018,-0.0092,-0.0156,-0.0169,0.0196,0.012,-0.0032,-0.0031,-0.0031,-0.0031,-0.0031,-0.0031,0.0652,0.0757,0.08,0.1026,0.1122,0.1308,0.1425,0.1604,0.1757,0.1961,0.201,0.2027,0.1623,0.053,-0.022,-0.0378,-0.0549,-0.0598,-0.064,-0.0436,-0.0399,-0.0363,-0.0455,-0.0725,-0.0726,-0.0981,-0.0984,-0.0986]}],[{"header":{"parameterUnit":"m.s-1","parameterCategory":2,"la1":30.2991,"la2":30.254,"lo1":-89.0895,"lo2":-89.0444,"dy":0.0017,"dx":0.0017,"nx":28,"ny":28,"refTime":"2025-05-19T03:00:00:Z","depth":"2","parameterNumber":2,"parameterNumberName":"U-component_of_CURRENTS"},"data":[0,0,0,0,0,0,0,0,0,0,0,0,0,0,0,0,0,0,0,0,0,0,0,0,0,0,0,0,0,0,0,0,0,0,0,0,0,0,0,0,0,0,0,0,0,0,0,0,0,0,0,0,0,0,0,0,0,0,0.1418,0.1418,0,0.1412,0.1412,0.1412,0.1349,0.1348,0.1346,0.1345,0.1354,0.1356,0.1357,0,0,0,0,0,0,0,0,0,0,0,0,0,0.1338,0.134,0.1418,0.1418,0.1418,0.1412,0.1412,0.1412,0.1349,0.1348,0.1346,0.1344,0.1354,0.1356,0.1358,0,0,0,0,0,0,0,0,0,0,0,0,0,0.1355,0.1341,0.1418,0.1387,0.1384,0.1412,0.1412,0.1412,0.135,0.1348,0.1346,0.1344,0.1353,0.1355,0.1358,0.1415,0,0,0.1365,0.1366,0,0,0,0,0,0,0,0,0.1355,0.1358,0.1392,0.1389,0.1386,0.138,0.1387,0.1414,0.135,0.1361,0.1345,0.1342,0.1367,0.1368,0.1369,0.1416,0.1416,0.1365,0.1367,0.1368,0.1368,0,0,0,0,0,0,0,0.1354,0.1358,0.1414,0.1392,0.1389,0.1361,0.1362,0.1392,0.1375,0.136,0.1356,0.1359,0.1365,0.1367,0.1369,0.1416,0.1365,0.1367,0.1369,0.137,0.1532,0.1535,0,0,0,0,0,0,0.1362,0.1358,0.1414,0.1414,0.1367,0.1365,0.1365,0.1383,0.1375,0.1372,0.136,0.1356,0.1364,0.1367,0.1369,0.1459,0.1368,0.137,0.1371,0.153,0.1533,0.1536,0,0,0,0,0,0,0.1361,0.1368,0.1414,0.1385,0.1389,0.1369,0.139,0.1384,0.1402,0.1375,0.1371,0.1385,0.1363,0.1366,0.139,0.1457,0.1371,0.1373,0.1526,0.1531,0.1535,0.1623,0,0,0,0,0,0,0.1359,0.1368,0.1383,0.1387,0.1391,0.1435,0.1392,0.1386,0.1407,0.1401,0.1396,0.1393,0.1361,0.1386,0.1392,0.1459,0.1375,0.1522,0.1528,0.1533,0.1617,0.163,0.1642,0,0,0,0,0,0.1356,0.138,0.1384,0.1391,0.1414,0.1436,0.1436,0.1412,0.1411,0.1421,0.1409,0.1394,0.1426,0.139,0.1396,0.1465,0.152,0.1527,0.1533,0.1611,0.1628,0.1641,0,0,0,0,0,0,0.1343,0.1377,0.138,0.1412,0.1428,0.1426,0.1429,0.144,0.1444,0.1434,0.1418,0.1415,0.1464,0.1459,0.142,0.1531,0.1478,0.1486,0.1536,0.1551,0.1563,0.1545,0.1377,0,0,0,0,0,0.1355,0.139,0.1409,0.1436,0.1442,0.1451,0.146,0.1455,0.1459,0.1458,0.1469,0.148,0.15,0.1515,0.1525,0.1588,0.1594,0.1643,0.1656,0.1666,0.1658,0.176,0.1781,0.1558,0.1558,0.1557,0,0,0.1358,0.1382,0.14,0.1437,0.1441,0.1438,0.145,0.1469,0.1483,0.1463,0.1496,0.1523,0.1524,0.1575,0.1602,0.1578,0.1729,0.1675,0.1683,0.1669,0.1769,0.179,0.181,0.1562,0.1561,0.1561,0,0,0.1367,0.1402,0.1422,0.1425,0.1444,0.1452,0.147,0.1499,0.1525,0.1564,0.1562,0.1625,0.1654,0.1679,0.1689,0.1788,0.1788,0.1816,0.187,0.197,0.1989,0.2006,0.2016,0.2033,0.1828,0.1828,0.1828,0,0.136,0.1399,0.1429,0.1423,0.1446,0.1461,0.1483,0.1493,0.1535,0.1598,0.1573,0.169,0.1697,0.1783,0.1806,0.1818,0.1845,0.1808,0.1986,0.2003,0.2018,0.2026,0.2043,0.1833,0.1832,0.1832,0.1831,0,0.1365,0.1386,0.1394,0.1403,0.1433,0.1454,0.148,0.1532,0.1584,0.162,0.1744,0.1768,0.1843,0.1879,0.1858,0.2001,0.1972,0.1986,0.1943,0.2046,0.2047,0.2063,0.184,0.1838,0.1837,0.1836,0,0,0.1389,0.14,0.1404,0.1435,0.1439,0.1486,0.1515,0.1605,0.1673,0.1724,0.185,0.1901,0.1958,0.1975,0.2012,0.2095,0.2219,0.2091,0.2094,0.209,0.2392,0.2295,0.2302,0.2283,0.2287,0.229,0.2338,0,0.1393,0.1419,0.1426,0.1471,0.1505,0.1538,0.1577,0.1653,0.173,0.1838,0.1918,0.2012,0.1979,0.2053,0.2129,0.2215,0.2272,0.22,0.2301,0.2301,0.2197,0.2323,0.21,0.2119,0.2354,0.2357,0.2359,0,0.1403,0.1441,0.1498,0.158,0.16,0.1618,0.1772,0.1804,0.1912,0.198,0.2078,0.2126,0.2248,0.2214,0.2363,0.2327,0.2354,0.2394,0.2398,0.2285,0.2238,0.2062,0.214,0.2386,0.2384,0.2382,0.238,0,0.1478,0.1506,0.1593,0.16,0.1661,0.1734,0.1776,0.1874,0.194,0.2082,0.2154,0.2276,0.2366,0.2438,0.2467,0.2454,0.2611,0.2608,0.2523,0.2512,0.2325,0.2292,0.2704,0.2704,0.2704,0.2704,0.2704,0,0.1508,0.1575,0.1635,0.1672,0.1771,0.1815,0.1924,0.1976,0.2077,0.2164,0.2233,0.2331,0.2439,0.2517,0.2527,0.2558,0.2653,0.2542,0.2546,0.2345,0.2315,0.2548,0.2529,0.2706,0.2705,0.2705,0.2705,0,0.1565,0.1598,0.1684,0.1773,0.1798,0.1876,0.1942,0.202,0.2106,0.2229,0.2279,0.2415,0.2522,0.2556,0.2685,0.2634,0.2676,0.2647,0.2351,0.232,0.2487,0.2472,0.2595,0.2592,0.259,0.2589,0.2587,0,0.1589,0.1644,0.1732,0.1775,0.1811,0.1899,0.1945,0.202,0.2098,0.2269,0.2345,0.248,0.2524,0.2615,0.258,0.2553,0.2638,0.2346,0.2289,0.2498,0.249,0.2478,0.2467,0.2059,0.2053,0.2049,0.2045,0,0.1639,0.1676,0.174,0.1793,0.1858,0.191,0.1992,0.2034,0.2152,0.2246,0.2389,0.2433,0.2487,0.2382,0.2325,0.2284,0.2336,0.2252,0.2607,0.2119,0.1997,0.1987,0.1993,0.2004,0.2008,0.2011,0.2013,0.2015,0.1669,0.1697,0.1757,0.1799,0.1867,0.1911,0.1919,0.1996,0.2065,0.2136,0.2298,0.225,0.2217,0.2013,0.1972,0.1947,0.2093,0.2009,0.2022,0.2041,0.1968,0.1851,0.181,0.1813,0.1816,0.1818,0.182,0,0.1655,0.1701,0.175,0.1792,0.1811,0.188,0.1942,0.1901,0.1919,0.1965,0.2016,0.1762,0.1667,0.1665,0.155,0.1549,0.1521,0.152,0.1475,0.1515,0.1551,0.1453,0.1159,0.1158,0.1156,0.1155,0,0,0.1677,0.1686,0.1683,0.1693,0.175,0.1752,0.1765,0.1696,0.1664,0.1539,0.1468,0.1531,0.1547,0.1303,0.1291,0.1227,0.1361,0.1174,0.1692,0.1675,0.1709,0.181,0.1701,0,0,0,0,0]},{"header":{"parameterUnit":"m.s-1","parameterCategory":2,"la1":30.2991,"la2":30.254,"lo1":-89.0895,"lo2":-89.0444,"dy":0.0017,"dx":0.0017,"nx":28,"ny":28,"refTime":"2025-05-19T03:00:00:Z","depth":"2","parameterNumber":3,"parameterNumberName":"V-component_of_CURRENTS"},"data":[0,0,0,0,0,0,0,0,0,0,0,0,0,0,0,0,0,0,0,0,0,0,0,0,0,0,0,0,0,0,0,0,0,0,0,0,0,0,0,0,0,0,0,0,0,0,0,0,0,0,0,0,0,0,0,0,0,0,-0.0362,-0.0364,0,-0.0557,-0.0559,-0.0562,-0.0691,-0.0692,-0.0693,-0.0693,-0.0766,-0.0767,-0.0768,0,0,0,0,0,0,0,0,0,0,0,0,0,-0.0194,-0.0195,-0.0362,-0.0364,-0.0367,-0.0557,-0.0559,-0.0562,-0.0691,-0.0692,-0.0693,-0.0694,-0.0766,-0.0767,-0.0768,0,0,0,0,0,0,0,0,0,0,0,0,0,-0.0315,-0.0196,-0.0361,-0.0454,-0.0464,-0.0556,-0.056,-0.0563,-0.069,-0.0692,-0.0693,-0.0694,-0.0765,-0.0767,-0.0769,-0.0753,0,0,-0.0774,-0.0775,0,0,0,0,0,0,0,0,-0.0308,-0.0321,-0.0438,-0.0448,-0.0459,-0.0601,-0.0527,-0.062,-0.069,-0.0604,-0.0693,-0.0695,-0.0699,-0.0706,-0.0741,-0.0756,-0.0759,-0.0774,-0.0775,-0.0776,-0.0776,0,0,0,0,0,0,0,-0.0299,-0.0314,-0.0439,-0.044,-0.0454,-0.0518,-0.0535,-0.0546,-0.0639,-0.0612,-0.0622,-0.0643,-0.0704,-0.0739,-0.0744,-0.076,-0.0774,-0.0775,-0.0776,-0.0777,-0.0771,-0.077,0,0,0,0,0,0,-0.0269,-0.0305,-0.0433,-0.0445,-0.0386,-0.0519,-0.0539,-0.0554,-0.0642,-0.0658,-0.0642,-0.0649,-0.0736,-0.0741,-0.0746,-0.0717,-0.0776,-0.0777,-0.0778,-0.0772,-0.0771,-0.077,0,0,0,0,0,0,-0.0265,-0.0278,-0.0425,-0.038,-0.0403,-0.052,-0.0536,-0.0557,-0.0584,-0.0667,-0.068,-0.0646,-0.0737,-0.0744,-0.0768,-0.0721,-0.0778,-0.078,-0.0774,-0.0772,-0.077,-0.0666,0,0,0,0,0,0,-0.0259,-0.0275,-0.0273,-0.0378,-0.0405,-0.0481,-0.0536,-0.056,-0.0597,-0.0607,-0.0674,-0.0684,-0.0739,-0.0765,-0.0769,-0.0724,-0.0781,-0.0775,-0.0773,-0.0771,-0.0671,-0.0661,-0.0652,0,0,0,0,0,-0.0252,-0.0264,-0.0272,-0.0287,-0.0399,-0.0481,-0.0501,-0.0589,-0.0595,-0.0614,-0.066,-0.0681,-0.0753,-0.0766,-0.0771,-0.0725,-0.0776,-0.0774,-0.0771,-0.0675,-0.0663,-0.0652,0,0,0,0,0,0,-0.0205,-0.0281,-0.0292,-0.0328,-0.039,-0.0503,-0.0537,-0.0565,-0.0618,-0.0624,-0.0677,-0.069,-0.0696,-0.0722,-0.0734,-0.0718,-0.0762,-0.0761,-0.0687,-0.0676,-0.0667,-0.0631,-0.0782,0,0,0,0,0,-0.0182,-0.0206,-0.0283,-0.0311,-0.0337,-0.0417,-0.0455,-0.0508,-0.0571,-0.0597,-0.0631,-0.0664,-0.0689,-0.0693,-0.0733,-0.0713,-0.0748,-0.0685,-0.0675,-0.0667,-0.0642,-0.0613,-0.0598,-0.0761,-0.0761,-0.0761,0,0,-0.0174,-0.0217,-0.0232,-0.03,-0.0357,-0.0412,-0.0445,-0.0506,-0.0531,-0.0589,-0.0616,-0.0639,-0.0682,-0.0688,-0.0687,-0.0699,-0.066,-0.0664,-0.0657,-0.0635,-0.0609,-0.0593,-0.0578,-0.0759,-0.076,-0.076,0,0,-0.0199,-0.02,-0.0241,-0.0288,-0.0363,-0.0401,-0.0402,-0.0484,-0.0496,-0.0528,-0.0564,-0.0548,-0.0604,-0.0606,-0.0618,-0.0568,-0.0621,-0.0577,-0.0483,-0.0456,-0.0442,-0.0429,-0.0538,-0.0536,-0.0558,-0.0557,-0.0557,0,-0.0184,-0.0236,-0.0266,-0.0327,-0.0339,-0.0384,-0.0413,-0.0451,-0.0521,-0.0477,-0.0531,-0.0527,-0.0563,-0.0514,-0.0511,-0.054,-0.0583,-0.0522,-0.0441,-0.0429,-0.0418,-0.0531,-0.053,-0.0552,-0.0553,-0.0553,-0.0554,0,-0.0266,-0.0289,-0.0317,-0.0381,-0.0391,-0.043,-0.0458,-0.0446,-0.0438,-0.0446,-0.0391,-0.0437,-0.0415,-0.042,-0.0462,-0.0373,-0.0457,-0.0443,-0.0464,-0.0394,-0.0521,-0.0521,-0.0544,-0.0546,-0.0548,-0.0549,0,0,-0.0265,-0.0351,-0.0358,-0.034,-0.0404,-0.0399,-0.0402,-0.0366,-0.0299,-0.0344,-0.0252,-0.0279,-0.0251,-0.0261,-0.0275,-0.0245,-0.0242,-0.0301,-0.0302,-0.0401,-0.0281,-0.0317,-0.0323,-0.0203,-0.0201,-0.0198,-0.0433,0,-0.0307,-0.0369,-0.0405,-0.0401,-0.0396,-0.0385,-0.0358,-0.0317,-0.0275,-0.0207,-0.0188,-0.0145,-0.0209,-0.0171,-0.0152,-0.0206,-0.0224,-0.0187,-0.0339,-0.0346,-0.0375,-0.0314,-0.0245,-0.0441,-0.0434,-0.0434,-0.0434,0,-0.0376,-0.0372,-0.0374,-0.0306,-0.0299,-0.0293,-0.0137,-0.0136,-0.0057,-0.0022,0.0037,0.0032,0.0059,0.0002,-0.0071,-0.0046,-0.0153,-0.0216,-0.0225,-0.0278,-0.0376,-0.0491,-0.0443,-0.0436,-0.0435,-0.0435,-0.0435,0,-0.0293,-0.0334,-0.0285,-0.0287,-0.0248,-0.0175,-0.0138,-0.0042,0.0023,0.0113,0.0173,0.0185,0.0191,0.0108,-0.0056,-0.005,-0.017,-0.0182,-0.0341,-0.0353,-0.033,-0.0341,-0.0225,-0.0225,-0.0224,-0.0223,-0.0223,0,-0.0295,-0.0248,-0.023,-0.0195,-0.0078,-0.0068,0.0072,0.0112,0.0195,0.0283,0.0283,0.0333,0.0235,0.0146,-0.0017,-0.0202,-0.0158,-0.0318,-0.0372,-0.0306,-0.031,-0.031,-0.0317,-0.0232,-0.023,-0.0229,-0.0227,0,-0.0212,-0.0234,-0.0153,-0.0075,-0.0044,0.0058,0.0151,0.0235,0.0309,0.0418,0.0445,0.0441,0.0315,0.0149,-0.0023,-0.0152,-0.0323,-0.041,-0.0398,-0.044,-0.0561,-0.056,-0.06,-0.0602,-0.0604,-0.0605,-0.0607,0,-0.0189,-0.014,-0.0051,-0.0007,0.0033,0.0153,0.0211,0.0285,0.0369,0.047,0.0518,0.0457,0.0363,0.006,-0.0113,-0.041,-0.0431,-0.0533,-0.0459,-0.0529,-0.0579,-0.0575,-0.0571,-0.0462,-0.0462,-0.0462,-0.0462,0,-0.0091,-0.0058,0.0003,0.0068,0.0142,0.0235,0.0334,0.0398,0.0482,0.0563,0.0589,0.0516,0.0292,0.0064,-0.0265,-0.0434,-0.0464,-0.0543,-0.0567,-0.0351,-0.0408,-0.0455,-0.0454,-0.0463,-0.0463,-0.0463,-0.0463,-0.0463,-0.002,0.0022,0.0054,0.0116,0.0206,0.028,0.0343,0.0418,0.0502,0.0619,0.0579,0.0523,0.0327,-0.0065,-0.0304,-0.0486,-0.0516,-0.0581,-0.0577,-0.0574,-0.0487,-0.0539,-0.0614,-0.0615,-0.0616,-0.0617,-0.0617,0,-0.0009,0.0018,0.0077,0.0127,0.0197,0.0281,0.0391,0.0442,0.0494,0.0621,0.0629,0.0465,0.021,-0.001,-0.0265,-0.048,-0.045,-0.0545,-0.045,-0.0451,-0.0451,-0.0353,-0.0448,-0.0448,-0.0448,-0.0448,0,0,0.0005,0.0001,-0.0006,0.0062,0.0158,0.0283,0.0356,0.0426,0.0524,0.0593,0.0646,0.062,0.0309,0.0167,-0.011,-0.0266,-0.0301,-0.0292,-0.041,-0.0266,-0.0262,-0.0464,-0.0313,0,0,0,0,0]}],[{"header":{"parameterUnit":"m.s-1","parameterCategory":2,"la1":30.2991,"la2":30.254,"lo1":-89.0895,"lo2":-89.0444,"dy":0.0017,"dx":0.0017,"nx":28,"ny":28,"refTime":"2025-05-19T03:00:00:Z","depth":"4","parameterNumber":2,"parameterNumberName":"U-component_of_CURRENTS"},"data":[0,0,0,0,0,0,0,0,0,0,0,0,0,0,0,0,0,0,0,0,0,0,0,0,0,0,0,0,0,0,0,0,0,0,0,0,0,0,0,0,0,0,0,0,0,0,0,0,0,0,0,0,0,0,0,0,0,0,0.0136,0.0136,0,0.013,0.013,0.013,0.0155,0.0155,0.0156,0.0157,0.0204,0.0204,0.0205,0,0,0,0,0,0,0,0,0,0,0,0,0,0.0202,0.02,0.0136,0.0136,0.0136,0.013,0.013,0.013,0.0155,0.0156,0.0156,0.0157,0.0203,0.0204,0.0205,0,0,0,0,0,0,0,0,0,0,0,0,0,0.0183,0.02,0.0136,0.0147,0.0148,0.013,0.013,0.013,0.0155,0.0156,0.0157,0.0157,0.0203,0.0204,0.0205,0.0191,0,0,0.0208,0.0208,0,0,0,0,0,0,0,0,0.0184,0.0181,0.0145,0.0146,0.0147,0.0143,0.017,0.0152,0.0154,0.0153,0.0157,0.0158,0.0187,0.0189,0.0186,0.0193,0.0195,0.0208,0.0209,0.0209,0.0209,0,0,0,0,0,0,0,0.0185,0.0181,0.0134,0.0145,0.0146,0.0163,0.0161,0.0167,0.0166,0.0153,0.0155,0.0152,0.0188,0.0185,0.0188,0.0196,0.0208,0.0209,0.0209,0.021,0.0234,0.0234,0,0,0,0,0,0,0.0181,0.0182,0.0135,0.0134,0.0167,0.0161,0.0159,0.0144,0.0165,0.0168,0.0151,0.0153,0.0183,0.0187,0.019,0.0226,0.0209,0.021,0.021,0.0234,0.0234,0.0234,0,0,0,0,0,0,0.0182,0.0176,0.0135,0.0158,0.0154,0.0158,0.0142,0.0143,0.0152,0.0163,0.0168,0.016,0.0184,0.0188,0.0203,0.0227,0.021,0.0211,0.0234,0.0234,0.0234,0.0267,0,0,0,0,0,0,0.0184,0.0176,0.0167,0.0157,0.0153,0.013,0.0141,0.0143,0.0148,0.0151,0.0171,0.0176,0.0185,0.0202,0.0204,0.0228,0.0212,0.0233,0.0234,0.0234,0.0266,0.0268,0.027,0,0,0,0,0,0.0186,0.0166,0.0167,0.0161,0.0138,0.0129,0.0129,0.0136,0.0148,0.0149,0.0164,0.0176,0.0204,0.0202,0.0205,0.023,0.0233,0.0234,0.0234,0.0265,0.0267,0.027,0,0,0,0,0,0,0.0191,0.0166,0.0167,0.0141,0.014,0.0134,0.0132,0.0139,0.015,0.016,0.0174,0.0179,0.0198,0.0202,0.02,0.0234,0.0222,0.0223,0.0244,0.0247,0.0249,0.028,0.0213,0,0,0,0,0,0.0186,0.0163,0.0154,0.0134,0.0133,0.0135,0.0134,0.0142,0.0148,0.0154,0.0172,0.0188,0.0197,0.0214,0.0217,0.0238,0.0253,0.0255,0.0257,0.0259,0.0284,0.0308,0.0316,0.0234,0.0234,0.0234,0,0,0.0185,0.0166,0.0155,0.0134,0.0133,0.0136,0.0137,0.0138,0.0159,0.0157,0.0192,0.0191,0.0199,0.0221,0.0232,0.0234,0.0288,0.026,0.0262,0.0286,0.0309,0.0317,0.0325,0.0234,0.0234,0.0234,0,0,0.0169,0.0153,0.0134,0.0134,0.0131,0.0137,0.014,0.0146,0.0169,0.019,0.0195,0.0211,0.023,0.0246,0.0255,0.027,0.0289,0.027,0.0323,0.0345,0.0352,0.0359,0.0384,0.0392,0.0284,0.0284,0.0284,0,0.0177,0.0147,0.0131,0.0122,0.0136,0.014,0.0152,0.0166,0.0183,0.0217,0.0209,0.0247,0.0247,0.0286,0.0294,0.0279,0.0297,0.0314,0.035,0.0357,0.0364,0.0387,0.0397,0.0285,0.0285,0.0285,0.0285,0,0.0147,0.014,0.0132,0.0127,0.0139,0.0147,0.0171,0.0204,0.0232,0.0253,0.0299,0.0294,0.0328,0.0321,0.0317,0.0366,0.0364,0.0341,0.0349,0.0375,0.0397,0.0406,0.0288,0.0287,0.0287,0.0286,0,0,0.0128,0.0119,0.0117,0.0142,0.0152,0.0169,0.0213,0.0264,0.0315,0.0331,0.0394,0.0401,0.0408,0.0417,0.0409,0.0432,0.048,0.0419,0.042,0.0454,0.0542,0.0515,0.0522,0.0469,0.047,0.0472,0.0538,0,0.0122,0.0117,0.0118,0.0155,0.0171,0.0216,0.0264,0.0317,0.0358,0.0415,0.0433,0.0465,0.0441,0.0457,0.0479,0.0478,0.0508,0.0466,0.0504,0.0506,0.0487,0.0533,0.0478,0.0545,0.0547,0.0548,0.0549,0,0.0089,0.0102,0.0132,0.0204,0.0219,0.0257,0.0365,0.0402,0.0477,0.0509,0.055,0.0553,0.0596,0.0555,0.0601,0.0579,0.0576,0.0569,0.0571,0.0548,0.0496,0.0513,0.0566,0.0565,0.0564,0.0562,0.0561,0,0.0082,0.0116,0.0154,0.0172,0.0247,0.0311,0.0361,0.0443,0.0494,0.0564,0.0605,0.0643,0.0674,0.0677,0.0682,0.0645,0.0732,0.0667,0.0643,0.064,0.063,0.0622,0.0706,0.0706,0.0706,0.0706,0.0706,0,0.007,0.0099,0.0168,0.0192,0.0274,0.0331,0.0421,0.0478,0.0561,0.0619,0.065,0.0686,0.0709,0.0755,0.073,0.074,0.0774,0.0678,0.0665,0.0639,0.0632,0.0636,0.0627,0.0708,0.0708,0.0707,0.0707,0,0.0043,0.0076,0.0127,0.0228,0.0266,0.0325,0.0435,0.0488,0.058,0.0657,0.0682,0.0749,0.0786,0.0819,0.0837,0.0809,0.0805,0.0797,0.0805,0.0787,0.068,0.0672,0.0757,0.0757,0.0756,0.0756,0.0756,0,0.0023,0.0048,0.0139,0.0168,0.0219,0.0309,0.0361,0.0472,0.0523,0.0675,0.0701,0.0789,0.0818,0.0838,0.0851,0.0848,0.0821,0.0841,0.0726,0.0711,0.069,0.0682,0.0674,0.0756,0.0756,0.0756,0.0756,0,-0.0002,0.0031,0.0068,0.0127,0.019,0.0248,0.0341,0.0383,0.052,0.0624,0.0702,0.0742,0.0797,0.0793,0.0842,0.0814,0.0837,0.0838,0.0836,0.0727,0.0711,0.0688,0.0681,0.0755,0.0755,0.0755,0.0755,0,-0.0033,-0.0021,0.0024,0.0084,0.0136,0.0179,0.0234,0.0323,0.0401,0.0597,0.0611,0.0698,0.0781,0.0777,0.0796,0.0807,0.0749,0.0713,0.0715,0.0717,0.0673,0.0644,0.0682,0,0,0,0,0,-0.006,-0.0051,-0.0019,0.0039,0.0084,0.0127,0.0217,0.0279,0.0433,0.0473,0.0556,0.0598,0.0654,0.0674,0.0665,0.0735,0.0732,0.0723,0.0685,0.0752,0.0752,0.0704,0,0,0,0,0,0,-0.0084,-0.0071,-0.0042,-0.001,0.0025,0.0077,0.0126,0.0223,0.0254,0.0411,0.0418,0.0566,0.0587,0.0648,0.0652,0.0667,0.0632,0.079,0.0789,0.0751,0.0752,0.0753,0.0703,0,0,0,0,0]},{"header":{"parameterUnit":"m.s-1","parameterCategory":2,"la1":30.2991,"la2":30.254,"lo1":-89.0895,"lo2":-89.0444,"dy":0.0017,"dx":0.0017,"nx":28,"ny":28,"refTime":"2025-05-19T03:00:00:Z","depth":"4","parameterNumber":3,"parameterNumberName":"V-component_of_CURRENTS"},"data":[0,0,0,0,0,0,0,0,0,0,0,0,0,0,0,0,0,0,0,0,0,0,0,0,0,0,0,0,0,0,0,0,0,0,0,0,0,0,0,0,0,0,0,0,0,0,0,0,0,0,0,0,0,0,0,0,0,0,0.0119,0.0119,0,0.0119,0.0119,0.0119,0.0072,0.0071,0.007,0.0069,-0.003,-0.0031,-0.0033,0,0,0,0,0,0,0,0,0,0,0,0,0,0.0091,0.0092,0.0119,0.0119,0.0119,0.0119,0.0119,0.0119,0.0072,0.0071,0.0069,0.0068,-0.0029,-0.0031,-0.0033,0,0,0,0,0,0,0,0,0,0,0,0,0,0.0097,0.0092,0.0119,0.0097,0.0095,0.0119,0.0119,0.0119,0.0072,0.0071,0.0069,0.0067,-0.0029,-0.0031,-0.0033,-0.0015,0,0,-0.0041,-0.0042,0,0,0,0,0,0,0,0,0.0097,0.0098,0.01,0.0099,0.0097,0.0095,0.0073,0.007,0.0073,0.0079,0.0069,0.0067,0.0005,-0.0,0.0003,-0.002,-0.0024,-0.0041,-0.0042,-0.0043,-0.0044,0,0,0,0,0,0,0,0.0096,0.0098,0.0117,0.01,0.0098,0.0092,0.0091,0.0073,0.0048,0.0079,0.0076,0.0079,0.0003,0.0005,-0.0,-0.0025,-0.0041,-0.0043,-0.0044,-0.0045,-0.0146,-0.0147,0,0,0,0,0,0,0.0101,0.0097,0.0117,0.0117,0.0094,0.0094,0.0092,0.0096,0.0051,0.0043,0.008,0.0077,0.001,0.0003,-0.0004,-0.0058,-0.0043,-0.0046,-0.0047,-0.0145,-0.0146,-0.0147,0,0,0,0,0,0,0.01,0.0103,0.0117,0.0108,0.011,0.0096,0.0101,0.0097,0.0079,0.0053,0.0043,0.0064,0.0009,-0.0001,-0.0041,-0.006,-0.0047,-0.0049,-0.0143,-0.0145,-0.0147,-0.012,0,0,0,0,0,0,0.01,0.0103,0.0101,0.0109,0.0111,0.013,0.0102,0.0098,0.0086,0.008,0.0037,0.0027,0.0007,-0.0037,-0.0043,-0.0063,-0.0051,-0.0142,-0.0144,-0.0146,-0.012,-0.0121,-0.0122,0,0,0,0,0,0.0099,0.0113,0.0102,0.0104,0.0112,0.0131,0.0131,0.0114,0.0086,0.0089,0.0045,0.0027,-0.0057,-0.0039,-0.0046,-0.0067,-0.014,-0.0143,-0.0146,-0.0119,-0.0121,-0.0122,0,0,0,0,0,0,0.0089,0.011,0.0097,0.0112,0.0117,0.0123,0.013,0.0109,0.008,0.0066,0.0024,0.0013,-0.0037,-0.0054,-0.0034,-0.0107,-0.0107,-0.0111,-0.0084,-0.0086,-0.0087,-0.0093,-0.0053,0,0,0,0,0,0.009,0.0112,0.0118,0.0129,0.0135,0.0127,0.0128,0.0117,0.0098,0.0084,0.0045,-0.0002,-0.0048,-0.0068,-0.0105,-0.0129,-0.0158,-0.0154,-0.0155,-0.0156,-0.0169,-0.0251,-0.0261,-0.0157,-0.0156,-0.0156,0,0,0.0087,0.0104,0.0112,0.0129,0.0134,0.0155,0.0123,0.0133,0.0131,0.0078,0.005,-0.0007,-0.0058,-0.0097,-0.012,-0.0115,-0.0191,-0.0159,-0.0159,-0.0172,-0.0255,-0.0265,-0.0274,-0.0158,-0.0158,-0.0158,0,0,0.0119,0.0111,0.0148,0.0157,0.0173,0.017,0.0169,0.0162,0.0139,0.0116,0.0056,-0.0019,-0.0057,-0.0116,-0.0147,-0.0178,-0.02,-0.0188,-0.0192,-0.0271,-0.028,-0.0289,-0.0289,-0.0298,-0.0182,-0.0182,-0.0182,0,0.0108,0.0153,0.0157,0.0195,0.0198,0.0177,0.0199,0.0189,0.016,0.0115,0.0109,-0.0032,-0.0071,-0.016,-0.0171,-0.0183,-0.0203,-0.0175,-0.0272,-0.0281,-0.0291,-0.029,-0.03,-0.0181,-0.0182,-0.0182,-0.0182,0,0.0179,0.0198,0.0221,0.0258,0.0262,0.0279,0.0266,0.0241,0.02,0.0158,0.0053,-0.0015,-0.0116,-0.0134,-0.0156,-0.0254,-0.0235,-0.0266,-0.0262,-0.0299,-0.0296,-0.0307,-0.018,-0.0181,-0.0181,-0.0181,0,0,0.0189,0.0255,0.0261,0.0268,0.0289,0.0292,0.0286,0.0247,0.0193,0.0143,0.0056,-0.0036,-0.0121,-0.0164,-0.0223,-0.028,-0.0343,-0.0293,-0.0297,-0.0281,-0.0463,-0.0366,-0.0368,-0.0392,-0.0395,-0.0397,-0.0414,0,0.0232,0.03,0.0324,0.0353,0.0368,0.034,0.0323,0.0274,0.0209,0.0122,0.0015,-0.0091,-0.0115,-0.0191,-0.0252,-0.0336,-0.038,-0.0332,-0.044,-0.0442,-0.0345,-0.0383,-0.0407,-0.0423,-0.0426,-0.0427,-0.0429,0,0.0295,0.032,0.0368,0.0359,0.0361,0.0368,0.029,0.0267,0.0148,0.0084,-0.0041,-0.0127,-0.0245,-0.0261,-0.0401,-0.0367,-0.0418,-0.0459,-0.0462,-0.0397,-0.037,-0.0394,-0.0449,-0.0448,-0.0446,-0.0445,-0.0444,0,0.0288,0.0343,0.037,0.0377,0.0376,0.0357,0.0326,0.0231,0.0183,0.0026,-0.0031,-0.0184,-0.0264,-0.0367,-0.0428,-0.044,-0.0541,-0.0577,-0.0527,-0.0517,-0.0608,-0.06,-0.0685,-0.0685,-0.0685,-0.0685,-0.0685,0,0.0313,0.0326,0.0364,0.0369,0.0352,0.0338,0.0277,0.0215,0.0121,0.0076,-0.0074,-0.0114,-0.0301,-0.0364,-0.0434,-0.048,-0.0551,-0.0533,-0.0536,-0.0588,-0.0577,-0.0612,-0.0604,-0.0686,-0.0686,-0.0685,-0.0685,0,0.0292,0.0336,0.0351,0.0354,0.0354,0.032,0.0277,0.0242,0.0135,0.008,0.0032,-0.0087,-0.0166,-0.0287,-0.0431,-0.0467,-0.0541,-0.0538,-0.0519,-0.052,-0.0461,-0.0451,-0.0521,-0.0518,-0.0516,-0.0514,-0.0512,0,0.0287,0.0303,0.0331,0.0351,0.0355,0.0318,0.0317,0.0239,0.0233,0.0143,0.0154,0.0035,-0.0035,-0.0157,-0.0286,-0.042,-0.0439,-0.0478,-0.0544,-0.0458,-0.0455,-0.0448,-0.0442,-0.0508,-0.0508,-0.0507,-0.0506,0,0.025,0.0274,0.0291,0.0338,0.0362,0.0376,0.0378,0.0358,0.031,0.0252,0.0229,0.012,0.0052,-0.0091,-0.0193,-0.0284,-0.0468,-0.0454,-0.0462,-0.0524,-0.0444,-0.0441,-0.0437,-0.0498,-0.0499,-0.05,-0.0501,0,0.0218,0.0232,0.0289,0.0324,0.0377,0.0429,0.0401,0.0428,0.0395,0.032,0.0351,0.0215,0.0137,-0.001,-0.0078,-0.0186,-0.024,-0.0301,-0.0318,-0.0329,-0.0273,-0.0143,-0.0114,0,0,0,0,0,0.0191,0.0235,0.028,0.0334,0.0397,0.0431,0.0475,0.0461,0.0437,0.0439,0.0374,0.0319,0.0157,0.009,-0.0006,-0.0043,-0.0257,-0.0156,-0.0336,-0.0452,-0.0462,-0.0422,0,0,0,0,0,0,0.0184,0.0231,0.0278,0.0357,0.0395,0.0467,0.049,0.0476,0.0469,0.0429,0.0347,0.0305,0.0152,0.0203,-0.0009,-0.0038,-0.0161,-0.0231,-0.0232,-0.0447,-0.0455,-0.0463,-0.0425,0,0,0,0,0]}]]